Dewpoint
13 14 15 15 14 15 16 16 16 14 16 23 27 30 29 29 27 26 26 26 26 26 26 25 28 28 29 30 30 30 28 28 29 31 32 35 36 37 39 40 40 40 42 43
20 18 19 18 18 19 18 17 18 19 19 28 23 24 27 25 25 25 24 23 22 22 23 21 21 22 23 27 28 28 28 27 29 30 30 32 33 34 36 36 37 39 39 41
11 17 17 16 19 18 18 24 27 21 24 24 24 23 28 26 25 24 23 22 21 21 22 21 21 21 22 24 26 27 26 26 26 27 27 29 30 32 33 34 34 36 37 38
16 18 12 23 22 20 22 22 23 22 23 23 23 24 28 27 26 23 21 21 21 21 21 22 21 21 23 23 24 25 25 25 25 25 25 26 29 30 31 31 32 33 35 36
20 14 14 20 21 22 21 21 24 24 23 24 24 25 31 28 24 23 21 20 21 20 21 21 20 21 22 23 23 23 23 23 23 24 23 24 26 27 28 30 31 31 32 34
20 8 9 23 24 25 26 22 28 27 26 26 25 21 24 27 24 23 21 20 20 20 20 20 20 21 21 22 22 22 22 23 23 23 23 24 25 26 28 29 29 30 30 32
20 21 18 25 25 27 20 26 28 30 30 30 28 28 29 27 25 23 22 20 20 20 19 19 20 21 21 21 22 22 23 23 23 23 22 23 25 26 27 28 29 30 30 31
22 21 17 25 26 24 30 30 30 29 30 30 29 27 24 22 21 21 20 19 19 19 19 19 19 20 19 20 21 23 23 23 22 23 21 21 24 25 26 27 28 28 29 30
27 27 32 31 31 33 31 30 29 29 28 27 25 22 21 20 20 19 19 18 18 18 19 19 19 19 19 20 20 22 23 23 23 23 23 24 24 25 25 25 25 26 27 28
28 29 29 32 31 31 32 31 30 28 26 24 22 20 20 18 18 17 17 17 17 18 17 18 19 19 19 20 21 23 24 24 25 25 25 26 25 26 26 25 25 25 26 27
27 30 30 31 31 32 31 31 28 26 23 21 20 19 18 17 16 17 17 16 17 17 17 17 18 18 20 20 21 21 24 25 26 25 25 25 26 26 25 26 25 24 24 25
28 34 33 33 35 33 31 28 24 22 20 18 16 16 16 15 17 18 18 17 17 17 17 17 18 19 20 21 21 22 24 25 25 24 25 25 25 27 25 23 22 22 22 23
30 31 32 32 29 27 25 24 21 19 18 16 14 14 14 16 18 19 20 19 19 19 19 18 18 19 21 22 22 22 23 24 23 24 24 24 24 24 23 26 22 22 21 21
30 28 26 25 24 22 21 19 17 15 15 13 12 12 13 16 19 19 19 20 20 19 19 19 20 20 23 24 23 22 23 22 23 24 24 24 23 23 24 23 22 23 22 21
28 27 26 24 21 17 15 15 13 12 11 11 12 13 15 16 18 18 18 18 18 18 17 18 18 21 23 23 23 23 23 23 23 24 24 23 23 23 22 22 21 21 21 20
23 22 21 20 17 15 13 12 11 11 10 10 11 13 13 16 17 18 17 16 17 17 17 18 20 21 23 23 22 24 23 23 21 22 22 22 22 21 21 21 20 20 19 19
23 22 19 17 16 14 12 11 11 11 10 10 11 11 12 14 15 16 16 16 17 18 21 21 21 22 24 23 23 21 21 21 21 21 21 20 20 20 20 20 19 19 19 19
21 18 17 17 15 14 13 12 12 12 12 13 15 14 14 14 14 14 15 16 17 18 18 21 20 21 22 22 21 21 20 20 20 20 20 20 20 19 19 19 18 18 18 18
16 15 15 14 14 14 14 14 13 14 16 16 15 13 14 14 14 14 15 16 15 16 17 19 19 20 19 20 18 19 20 20 20 19 19 19 20 19 19 19 18 18 18 17
15 14 14 14 15 14 14 16 16 16 16 16 14 14 14 14 14 14 15 16 16 16 17 17 17 17 18 17 18 17 19 20 18 19 19 19 19 20 19 17 17 18 19 18
16 15 15 16 16 16 16 16 16 16 15 13 14 13 12 15 15 14 14 12 15 16 16 16 15 15 14 15 15 19 19 19 19 19 19 19 19 19 19 19 19 18 18 18
20 19 18 17 16 16 16 16 16 15 15 14 12 13 14 15 14 15 16 14 14 14 16 15 14 15 15 17 16 18 17 17 18 18 18 19 18 18 18 18 18 18 17 17
21 20 19 17 16 16 16 15 13 14 15 14 14 14 14 15 14 14 13 14 13 14 14 15 14 14 16 18 18 17 16 16 16 16 16 16 16 17 17 16 17 17 16 15
20 20 20 19 16 16 15 16 16 16 14 15 14 13 14 15 17 15 14 14 13 15 16 15 14 13 15 17 16 16 15 15 15 15 14 12 15 15 15 15 15 16 15 14
20 20 18 17 16 16 15 16 15 16 15 16 15 14 14 14 16 15 16 16 13 13 15 13 12 14 16 16 15 14 15 14 13 14 13 13 13 13 13 13 12 14 14 13
21 19 19 18 18 16 15 15 15 17 16 16 16 17 17 16 16 15 15 14 14 12 14 15 14 14 15 14 14 14 14 12 12 12 12 12 12 11 11 11 11 11 11 10
20 18 16 16 16 16 17 17 17 16 17 18 15 17 15 16 16 14 13 15 14 14 14 14 14 12 13 13 13 13 13 13 11 10 11 11 11 11 10 10 10 10 10 8
Lifted_Index
6 6 5 4 3 2 1 1 1 1 0 1 1 2 3 4 3 3 4 4 5 6 7 8 9 8 8 8 9 10 10 9 8 7 7 8 8 8 8 7 7 7 7 7
6 5 4 3 2 2 1 1 1 1 1 1 2 3 3 4 4 4 4 5 6 7 8 9 9 9 9 9 9 10 9 9 8 8 8 8 8 8 8 8 7 7 7 7
5 4 3 2 2 2 2 2 2 2 2 2 3 4 4 4 4 4 5 5 6 8 9 9 10 11 10 10 10 10 10 9 9 9 9 9 8 8 8 8 8 7 7 7
3 3 2 2 2 2 2 2 3 3 3 3 4 4 5 5 5 5 5 6 8 9 9 10 11 11 12 11 11 11 11 11 11 10 10 9 9 9 9 9 8 8 7 7
2 2 2 2 2 2 2 3 3 3 3 4 4 4 5 6 6 6 7 7 8 9 10 11 12 12 12 12 12 12 11 11 11 11 10 9 9 9 9 9 8 8 8 8
2 1 1 2 2 3 3 2 3 3 4 4 4 4 5 6 7 7 8 8 9 10 11 11 12 12 12 11 11 11 11 12 12 11 10 10 9 9 10 9 9 8 8 8
2 1 1 2 3 3 3 3 3 4 4 4 4 5 5 7 7 8 8 9 10 10 10 11 12 12 11 11 11 12 12 12 12 12 12 11 11 11 11 10 10 9 9 8
2 2 2 3 3 3 3 3 4 4 4 5 5 6 6 7 7 8 8 9 10 10 11 12 13 12 11 11 12 13 13 13 13 13 13 13 13 12 12 12 11 10 9 9
2 2 3 3 3 3 4 4 4 5 5 5 6 6 6 7 7 8 8 9 10 11 12 13 13 13 12 12 13 13 13 13 13 13 14 14 14 13 13 12 12 11 10 10
2 2 3 3 3 4 4 4 5 5 6 6 6 6 7 7 8 8 9 11 12 12 13 13 14 14 14 14 14 14 13 13 13 13 14 14 15 15 14 14 14 13 13 13
3 3 3 3 3 4 4 5 5 6 7 7 7 7 7 8 9 10 11 12 13 14 14 14 15 16 16 16 15 14 14 13 14 14 14 14 15 15 16 17 17 17 17 17
2 3 3 3 3 4 4 5 6 7 7 7 8 8 8 9 10 11 12 13 14 14 14 15 16 16 17 17 16 15 14 14 14 14 14 14 14 15 16 18 19 19 20 20
2 3 3 3 4 4 5 6 6 7 7 8 8 9 10 10 11 12 13 13 14 15 15 16 16 17 17 17 16 15 14 14 14 14 14 14 14 14 15 16 17 19 20 20
3 3 3 3 4 5 6 6 7 7 8 8 9 10 11 11 12 13 13 15 15 16 16 17 17 17 18 18 17 16 15 15 15 15 15 15 15 15 15 15 16 17 19 20
3 3 3 3 4 5 6 7 7 7 8 8 10 11 11 12 12 14 15 16 16 17 17 18 18 18 19 18 17 17 16 16 16 16 16 16 16 16 16 16 16 16 18 19
3 3 3 3 4 5 6 6 7 7 8 9 10 11 12 13 14 15 16 17 17 17 18 18 19 19 19 19 18 17 16 16 16 16 16 16 16 16 16 17 17 17 18 18
3 3 3 4 4 5 6 6 7 7 9 10 11 12 13 13 14 15 17 18 18 18 19 19 19 20 20 19 18 18 17 17 17 17 17 16 16 17 17 17 17 18 18 19
3 3 4 4 5 5 6 6 7 9 10 11 12 13 13 14 14 15 17 17 18 18 19 20 20 20 20 20 19 18 18 17 17 17 17 17 17 17 17 18 18 18 19 20
4 4 5 5 6 6 6 7 9 10 11 12 13 13 14 15 15 16 17 17 17 18 19 20 21 21 20 20 20 20 19 18 17 17 17 18 18 18 18 18 19 19 20 20
4 5 5 6 6 7 8 9 10 11 12 13 13 13 14 15 16 17 17 17 18 19 20 21 21 21 21 21 21 20 19 18 18 18 18 18 18 19 19 19 19 19 20 20
4 5 5 6 7 8 9 10 11 12 13 13 14 14 14 15 16 17 17 17 18 20 21 21 21 21 21 21 21 21 20 19 19 18 18 18 18 19 19 19 19 19 20 20
5 5 6 7 7 9 11 12 12 13 13 14 14 15 15 15 16 17 17 18 19 20 21 21 21 21 21 21 21 21 20 20 19 19 19 19 19 19 19 19 19 19 19 20
6 6 7 8 9 10 11 13 13 14 14 15 15 15 15 16 16 17 17 19 20 20 20 20 20 20 20 21 21 21 21 20 20 20 20 20 20 20 19 19 19 19 19 20
7 8 9 10 11 11 12 13 14 14 15 15 16 16 16 16 17 17 18 19 19 19 19 19 19 19 20 20 20 20 20 20 20 21 21 21 21 21 20 19 19 19 20 20
8 9 10 11 12 12 13 14 14 15 15 16 16 17 17 17 17 17 18 18 18 18 18 18 19 19 19 19 20 20 20 20 20 21 21 21 21 21 21 21 20 20 20 20
9 10 11 12 13 13 14 14 15 15 16 16 16 17 17 17 17 17 17 17 17 17 17 18 18 18 19 19 19 19 20 20 20 20 21 21 21 21 21 21 21 21 21 21
11 11 12 13 14 14 15 15 15 15 16 16 16 17 17 17 17 17 16 16 16 16 16 17 17 17 18 18 19 19 20 20 20 20 20 21 21 21 21 21 22 22 22 22